| time (UTC) | temp C | wind direction | speed KPH | gust KPH | rain 1hr cm | rain 24hr cm | rain mn cm | humidity % | barometer mb |
| 20260510141605 | 15 | 238 | 0.0 | 3.2 | 0.00 | 0.05 | 0.00 | 95 | 1011.1 |
| 20260510140054 | 15 | 238 | 0.0 | 0.0 | 0.00 | 0.05 | 0.00 | 96 | 1011.1 |
| 20260510134559 | 13 | 140 | 0.0 | 0.0 | 0.00 | 0.05 | 0.00 | 95 | 1011.1 |
| 20260510133048 | 12 | 138 | 0.0 | 0.0 | 0.00 | 0.05 | 0.00 | 95 | 1011.0 |
| 20260510131544 | 12 | 132 | 0.0 | 0.0 | 0.00 | 0.05 | 0.00 | 95 | 1011.1 |
| 20260510130041 | 11 | 132 | 0.0 | 0.0 | 0.00 | 0.05 | 0.00 | 95 | 1011.2 |
| 20260510124538 | 11 | 132 | 0.0 | 0.0 | 0.00 | 0.05 | 0.00 | 95 | 1011.2 |
| 20260510123034 | 11 | 132 | 0.0 | 1.6 | 0.00 | 0.05 | 0.00 | 94 | 1011.1 |
| 20260510121532 | 10 | 131 | 0.0 | 1.6 | 0.00 | 0.05 | 0.00 | 94 | 1010.8 |
| 20260510120030 | 10 | 131 | 0.0 | 1.6 | 0.00 | 0.05 | 0.00 | 94 | 1010.7 |
| 20260510114536 | 10 | 131 | 0.0 | 3.2 | 0.00 | 0.05 | 0.00 | 94 | 1010.4 |
| 20260510113032 | 9 | 131 | 0.0 | 0.0 | 0.00 | 0.05 | 0.00 | 94 | 1010.3 |
| 20260510111527 | 9 | 131 | 0.0 | 0.0 | 0.00 | 0.05 | 0.00 | 94 | 1010.1 |
| 20260510110030 | 9 | 131 | 0.0 | 3.2 | 0.00 | 0.05 | 0.00 | 94 | 1010.3 |
| 20260510104518 | 8 | 131 | 0.0 | 1.6 | 0.00 | 0.05 | 0.00 | 93 | 1010.1 |
| 20260510103016 | 8 | 131 | 0.0 | 0.0 | 0.00 | 0.05 | 0.00 | 93 | 1009.8 |
| 20260510101513 | 8 | 131 | 0.0 | 0.0 | 0.00 | 0.05 | 0.00 | 93 | 1009.8 |
| 20260510100012 | 8 | 131 | 0.0 | 0.0 | 0.00 | 0.05 | 0.00 | 93 | 1009.4 |
| 20260510094513 | 8 | 131 | 0.0 | 0.0 | 0.00 | 0.05 | 0.00 | 93 | 1009.4 |
| 20260510093011 | 8 | 131 | 0.0 | 0.0 | 0.00 | 0.05 | 0.00 | 93 | 1009.3 |
| 20260510091510 | 8 | 131 | 0.0 | 4.8 | 0.00 | 0.05 | 0.00 | 93 | 1009.1 |
| 20260510090010 | 8 | 131 | 0.0 | 3.2 | 0.00 | 0.05 | 0.00 | 93 | 1009.3 |
| 20260510084509 | 8 | 131 | 0.0 | 4.8 | 0.00 | 0.05 | 0.00 | 92 | 1009.5 |
| 20260510083014 | 7 | 196 | 1.6 | 4.8 | 0.00 | 0.05 | 0.00 | 92 | 1008.9 |
| 20260510081505 | 7 | 110 | 0.0 | 6.4 | 0.00 | 0.05 | 0.00 | 92 | 1009.4 |
| 20260510080002 | 7 | 101 | 0.0 | 3.2 | 0.00 | 0.05 | 0.00 | 92 | 1008.7 |
| 20260510074502 | 7 | 101 | 0.0 | 0.0 | 0.00 | 0.05 | 0.00 | 91 | 1008.5 |
| 20260510073103 | 7 | 101 | 0.0 | 0.0 | 0.00 | 0.05 | 0.00 | 91 | 1008.6 |
| 20260510071603 | 7 | 101 | 0.0 | 0.0 | 0.00 | 0.05 | 0.00 | 91 | 1008.4 |
| 20260510070109 | 8 | 101 | 0.0 | 0.0 | 0.00 | 0.05 | 0.00 | 91 | 1008.3 |
| 20260510064601 | 8 | 101 | 0.0 | 0.0 | 0.00 | 0.05 | 0.00 | 91 | 1008.2 |
| 20260510063100 | 8 | 101 | 0.0 | 0.0 | 0.00 | 0.05 | 0.00 | 91 | 1008.1 |
| 20260510061552 | 8 | 101 | 0.0 | 0.0 | 0.00 | 0.05 | 0.00 | 91 | 1008.1 |
| 20260510060052 | 8 | 101 | 0.0 | 0.0 | 0.00 | 0.05 | 0.00 | 91 | 1008.2 |
| 20260510054554 | 8 | 101 | 0.0 | 0.0 | 0.00 | 0.05 | 0.00 | 90 | 1008.2 |
| 20260510053047 | 8 | 101 | 0.0 | 0.0 | 0.00 | 0.05 | 0.00 | 91 | 1008.4 |
| 20260510051545 | 8 | 101 | 0.0 | 0.0 | 0.00 | 0.05 | 0.00 | 90 | 1008.5 |
| 20260510050048 | 9 | 101 | 0.0 | 0.0 | 0.00 | 0.05 | 0.00 | 90 | 1008.5 |
| 20260510044541 | 9 | 101 | 0.0 | 0.0 | 0.00 | 0.05 | 0.00 | 90 | 1008.6 |
| 20260510043039 | 10 | 101 | 0.0 | 0.0 | 0.00 | 0.05 | 0.00 | 90 | 1008.7 |
| 20260510041547 | 10 | 101 | 0.0 | 0.0 | 0.00 | 0.05 | 0.00 | 90 | 1008.7 |
| 20260510040035 | 10 | 101 | 0.0 | 0.0 | 0.00 | 0.05 | 0.00 | 90 | 1008.6 |
| 20260510034534 | 10 | 101 | 0.0 | 0.0 | 0.00 | 0.05 | 0.05 | 90 | 1008.7 |
| 20260510033032 | 10 | 101 | 0.0 | 0.0 | 0.00 | 0.05 | 0.05 | 90 | 1008.6 |
| 20260510031533 | 10 | 101 | 0.0 | 0.0 | 0.00 | 0.05 | 0.05 | 89 | 1008.5 |
| 20260510030029 | 11 | 101 | 0.0 | 0.0 | 0.00 | 0.05 | 0.05 | 89 | 1008.4 |
| 20260510024527 | 11 | 101 | 0.0 | 0.0 | 0.00 | 0.05 | 0.05 | 89 | 1008.2 |
| 20260510023026 | 11 | 101 | 0.0 | 0.0 | 0.00 | 0.05 | 0.05 | 88 | 1008.3 |
| 20260510021534 | 11 | 101 | 0.0 | 0.0 | 0.00 | 0.05 | 0.05 | 88 | 1008.3 |
| 20260510020029 | 11 | 101 | 0.0 | 0.0 | 0.00 | 0.05 | 0.05 | 88 | 1008.2 |
| 20260510014523 | 12 | 101 | 0.0 | 0.0 | 0.00 | 0.05 | 0.05 | 88 | 1008.0 |
| 20260510013021 | 12 | 101 | 0.0 | 0.0 | 0.00 | 0.05 | 0.05 | 87 | 1008.0 |
| 20260510011520 | 12 | 101 | 0.0 | 0.0 | 0.00 | 0.05 | 0.05 | 87 | 1007.9 |
| 20260510010020 | 12 | 101 | 0.0 | 0.0 | 0.00 | 0.05 | 0.05 | 87 | 1007.7 |
| 20260510004519 | 12 | 101 | 0.0 | 0.0 | 0.00 | 0.05 | 0.05 | 87 | 1007.6 |
| 20260510003021 | 13 | 101 | 0.0 | 0.0 | 0.00 | 0.05 | 0.05 | 87 | 1007.5 |
| 20260510001528 | 13 | 101 | 0.0 | 0.0 | 0.00 | 0.05 | 0.05 | 87 | 1007.5 |
| 20260510000018 | 13 | 101 | 0.0 | 0.0 | 0.00 | 0.05 | 0.05 | 87 | 1007.6 |
| 20260509234517 | 13 | 101 | 0.0 | 1.6 | 0.00 | 0.05 | 0.05 | 86 | 1007.3 |
| 20260509233018 | 13 | 101 | 0.0 | 3.2 | 0.00 | 0.05 | 0.05 | 86 | 1007.4 |
| 20260509231516 | 14 | 101 | 0.0 | 1.6 | 0.00 | 0.05 | 0.05 | 85 | 1007.5 |
| 20260509230016 | 14 | 101 | 0.0 | 0.0 | 0.00 | 0.05 | 0.05 | 85 | 1007.3 |
| 20260509224515 | 14 | 101 | 0.0 | 3.2 | 0.00 | 0.05 | 0.05 | 84 | 1007.3 |
| 20260509223014 | 15 | 101 | 0.0 | 4.8 | 0.00 | 0.05 | 0.05 | 84 | 1007.5 |
| 20260509221514 | 15 | 165 | 1.6 | 3.2 | 0.00 | 0.05 | 0.05 | 84 | 1007.4 |
| 20260509220014 | 15 | 165 | 0.0 | 4.8 | 0.00 | 0.05 | 0.05 | 85 | 1007.4 |
| 20260509214522 | 14 | 165 | 0.0 | 3.2 | 0.00 | 0.05 | 0.05 | 86 | 1007.3 |
| 20260509213012 | 14 | 166 | 0.0 | 0.0 | 0.00 | 0.05 | 0.05 | 85 | 1007.4 |
| 20260509211512 | 14 | 166 | 0.0 | 0.0 | 0.00 | 0.05 | 0.05 | 84 | 1007.4 |
| 20260509210013 | 14 | 166 | 0.0 | 3.2 | 0.00 | 0.05 | 0.05 | 83 | 1007.5 |
| 20260509204523 | 15 | 167 | 0.0 | 0.0 | 0.00 | 0.05 | 0.05 | 84 | 1007.6 |
| 20260509203010 | 15 | 167 | 0.0 | 0.0 | 0.00 | 0.05 | 0.05 | 83 | 1007.4 |
| 20260509201510 | 15 | 167 | 0.0 | 3.2 | 0.00 | 0.05 | 0.05 | 84 | 1007.6 |
| 20260509200012 | 14 | 138 | 1.6 | 4.8 | 0.00 | 0.05 | 0.05 | 86 | 1007.2 |
| 20260509194509 | 14 | 134 | 0.0 | 1.6 | 0.00 | 0.05 | 0.05 | 87 | 1007.6 |
| 20260509193004 | 13 | 284 | 0.0 | 1.6 | 0.00 | 0.05 | 0.05 | 86 | 1007.7 |
| 20260509191502 | 13 | 284 | 0.0 | 1.6 | 0.00 | 0.05 | 0.05 | 86 | 1008.2 |
| 20260509190002 | 13 | 284 | 0.0 | 3.2 | 0.00 | 0.05 | 0.05 | 85 | 1008.3 |
| 20260509184558 | 13 | 284 | 0.0 | 4.8 | 0.03 | 0.05 | 0.05 | 84 | 1008.7 |
| 20260509183057 | 13 | 284 | 0.0 | 4.8 | 0.03 | 0.05 | 0.05 | 85 | 1008.8 |
| 20260509181604 | 14 | 284 | 0.0 | 4.8 | 0.03 | 0.05 | 0.05 | 85 | 1008.8 |
| 20260509180059 | 14 | 284 | 0.0 | 3.2 | 0.03 | 0.05 | 0.05 | 85 | 1008.9 |
| 20260509174603 | 14 | 284 | 0.0 | 3.2 | 0.00 | 0.03 | 0.03 | 85 | 1009.0 |
| 20260509173109 | 14 | 284 | 0.0 | 4.8 | 0.00 | 0.03 | 0.03 | 85 | 1009.0 |
| 20260509171601 | 14 | 284 | 0.0 | 0.0 | 0.00 | 0.03 | 0.03 | 85 | 1009.0 |
| 20260509170055 | 15 | 284 | 0.0 | 1.6 | 0.00 | 0.03 | 0.03 | 84 | 1008.8 |
| 20260509164555 | 15 | 292 | 0.0 | 1.6 | 0.00 | 0.03 | 0.03 | 85 | 1008.8 |
| 20260509163103 | 15 | 292 | 0.0 | 3.2 | 0.03 | 0.03 | 0.03 | 85 | 1008.7 |
| 20260509161552 | 15 | 292 | 0.0 | 1.6 | 0.03 | 0.03 | 0.03 | 85 | 1008.7 |
| 20260509160058 | 15 | 293 | 0.0 | 0.0 | 0.03 | 0.03 | 0.03 | 83 | 1009.3 |
| 20260509154600 | 15 | 293 | 0.0 | 3.2 | 0.03 | 0.03 | 0.03 | 80 | 1009.5 |
| 20260509153050 | 15 | 293 | 3.2 | 6.4 | 0.00 | 0.00 | 0.00 | 78 | 1009.7 |
| 20260509151553 | 15 | 298 | 1.6 | 6.4 | 0.00 | 0.00 | 0.00 | 78 | 1009.7 |
| 20260509150049 | 16 | 306 | 1.6 | 4.8 | 0.00 | 0.00 | 0.00 | 77 | 1009.7 |
| 20260509144605 | 16 | 279 | 1.6 | 6.4 | 0.00 | 0.00 | 0.00 | 76 | 1009.5 |
| 20260509143049 | 15 | 279 | 3.2 | 12.9 | 0.00 | 0.00 | 0.00 | 74 | 1009.5 |